Home > Weather > Cuxhaven > Past weeks

Flag for Germany Past Weather in Cuxhaven, Lower Saxony, Germany — Yesterday and Last 2 Weeks

Now
63 °F

Broken clouds.


Feels Like: 63 °F
Forecast: 57 / 66 °F
Wind: 12 mph from Northeast

Location: Nordholz

Current Time: Jun 25, 2016 at 2:20:09 PM

Latest Report: Jun 25, 2016 at 1:20 PM


Visibility: N/A

Pressure: 29.95 "Hg

Humidity: 88%

Dew Point: 59 °F

Location of CuxhavenLocation

Past Weather in Cuxhaven — Graph

°F

Cuxhaven Temperature Yesterday

Maximum temperature yesterday: 73 °F (at 1:20 PM)
Minimum temperature yesterday: 61 °F (at 11:20 PM)
Average temperature yesterday: 67 °F

High & Low Weather Summary for the Past Weeks

 TemperatureHumidityPressure
High84 °F (Jun 23, 1:20 PM)100% (Jun 11, 5:20 AM)30.21 "Hg (Jun 11, 5:20 AM)
Low48 °F (Jun 11, 12:20 AM)43% (Jun 11, 6:20 PM)29.42 "Hg (Jun 14, 4:20 PM)
Average61 °F82%29.84 "Hg
* Reported Jun 10 12:20 PM — Jun 25 12:20 PM, Cuxhaven, Weather by CustomWeather, © 2016

Note: Actual official high and low records may vary slightly from our data, if they occured in-between our weather recording intervals... More about our weather records

Advertising

Cuxhaven Weather History for the Previous 24 Hours

Scroll right to see more
 ConditionsComfort  
Time TempWeatherWind HumidityBarometerVisibility
12:20 PM
Sat, Jun 25
61 °FBroken clouds.8 mph94%29.95 "Hg5 mi
11:20 AM59 °FRain. Fog.15 mph100%29.95 "Hg2 mi
10:53 AM61 °FRain. Fog.2 mph94%30.04 "Hg2 mi
10:20 AM61 °FRain. Fog.5 mph88%30.01 "Hg3 mi
10:04 AM61 °FBroken clouds.7 mph88%30.01 "HgN/A
9:20 AM61 °FPartly sunny.9 mph88%29.98 "HgN/A
8:20 AM63 °FPartly sunny.9 mph88%29.98 "HgN/A
7:20 AM61 °FPartly sunny.7 mph88%29.98 "HgN/A
6:20 AM61 °FPartly sunny.6 mph88%30.01 "HgN/A
5:20 AM61 °FPassing clouds.6 mph94%30.01 "HgN/A
4:20 AM61 °FPassing clouds.5 mph94%30.04 "HgN/A
3:48 AM59 °FPassing clouds.6 mph100%30.04 "HgN/A
3:20 AM59 °FPassing clouds.5 mph100%30.04 "HgN/A
2:20 AM61 °FPassing clouds.3 mph94%30.07 "Hg4 mi
1:20 AM59 °FLow clouds.5 mph100%30.07 "Hg5 mi
12:20 AM59 °FFog.5 mph100%30.07 "Hg3 mi
11:20 PM
Fri, Jun 24
61 °FFog.7 mph94%30.07 "Hg2 mi
10:20 PM63 °FLight rain. Fog.3 mph94%30.07 "Hg2 mi
9:20 PM63 °FSprinkles. Fog.7 mph94%30.07 "Hg2 mi
8:20 PM63 °FFog.3 mph94%30.07 "Hg3 mi
7:20 PM64 °FThundershowers. Fog.7 mph94%30.04 "Hg3 mi
6:49 PM64 °FThundershowers. Fog.6 mph94%30.07 "Hg3 mi
6:20 PM64 °FThunderstorms. Fog.9 mph88%30.04 "Hg3 mi
5:55 PM64 °FFog.8 mph94%30.07 "Hg3 mi
5:20 PM64 °FThunderstorms. Fog.12 mph94%30.04 "Hg2 mi
4:50 PM66 °FSprinkles. Broken clouds.10 mph88%30.04 "Hg4 mi
4:20 PM66 °FFog.10 mph88%30.04 "Hg3 mi
4:00 PM68 °FFog.9 mph88%30.04 "Hg2 mi
3:20 PM73 °FBroken clouds.9 mph78%30.04 "Hg4 mi
2:49 PM73 °FBroken clouds.8 mph78%30.04 "HgN/A
2:20 PM73 °FPartly sunny.8 mph78%30.04 "HgN/A
Weather by CustomWeather, © 2016

See weather overviewHow to use our weather pages